Home > Weather > Mons > Past weeks

Flag for Belgium Past Weather in Mons, Belgium — Yesterday and Last 2 Weeks

Now
88 °F

Warm.


Feels Like: 91 °F
Forecast: 67 / 85 °F
Wind: 6 mph from Southeast

Location: Chievres

Current Time: Aug 25, 2016 at 1:48:59 PM

Latest Report: Aug 25, 2016 at 12:55 PM


Visibility: N/A

Pressure: 29.98 "Hg

Humidity: 52%

Dew Point: 68 °F

Location of MonsLocation

Past Weather in Mons — Graph

°F

Mons Temperature Yesterday

Maximum temperature yesterday: 91 °F (at 4:25 PM)
Minimum temperature yesterday: 61 °F (at 3:55 AM)
Average temperature yesterday: 76 °F

High & Low Weather Summary for the Past Weeks

 TemperatureHumidityPressure
High91 °F (Aug 24, 4:25 PM)100% (Aug 10, 11:25 PM)30.30 "Hg (Aug 10, 11:25 PM)
Low46 °F (Aug 10, 11:25 PM)24% (Aug 24, 5:25 PM)29.77 "Hg (Aug 19, 2:25 PM)
Average64 °F77%30.09 "Hg
* Reported Aug 10 12:25 PM — Aug 25 12:25 PM, Mons, Weather by CustomWeather, © 2016

Note: Actual official high and low records may vary slightly from our data, if they occured in-between our weather recording intervals... More about our weather records

Advertising

Mons Weather History for the Previous 24 Hours

Scroll right to see more
 ConditionsComfort  
Time TempWeatherWind HumidityBarometerVisibility
12:25 PM
Thu, Aug 25
86 °FWarm.7 mph55%29.98 "HgN/A
11:55 AM84 °FWarm.6 mph55%29.98 "HgN/A
11:25 AM82 °FWarm.6 mph58%29.98 "HgN/A
10:55 AM81 °FWarm.3 mph58%30.01 "HgN/A
9:55 AM77 °FWarm.5 mph61%30.01 "HgN/A
9:25 AM75 °FMild.6 mph65%30.01 "HgN/A
8:55 AM72 °FMild.6 mph73%30.01 "HgN/A
8:25 AM72 °FMild.1 mph73%30.01 "HgN/A
7:55 AM64 °FMild.1 mph88%30.01 "HgN/A
7:25 AM63 °FMild.2 mph83%30.01 "HgN/A
6:55 AM63 °FMild.2 mph83%30.01 "HgN/A
6:25 AM61 °FCool.5 mph88%30.01 "HgN/A
5:55 AM61 °FCool.3 mph88%30.01 "HgN/A
5:25 AM61 °FCool.3 mph88%30.01 "HgN/A
4:55 AM61 °FCool.2 mph88%30.01 "HgN/A
3:55 AM64 °FMild.2 mph78%30.01 "HgN/A
3:25 AM64 °FMild.1 mph78%30.01 "HgN/A
2:55 AM66 °FMild.3 mph73%30.01 "HgN/A
2:25 AM64 °FMild.3 mph83%30.04 "HgN/A
1:55 AM63 °FMild.3 mph88%30.04 "HgN/A
1:25 AM66 °FMild.1 mph78%30.04 "HgN/A
12:55 AM64 °FMild.2 mph83%30.04 "HgN/A
12:25 AM64 °FMild.2 mph83%30.04 "HgN/A
11:55 PM
Wed, Aug 24
68 °FMild.1 mph73%30.04 "HgN/A
11:25 PM68 °FMild.2 mph78%30.04 "HgN/A
10:55 PM70 °FMild.3 mph73%30.04 "HgN/A
10:25 PM72 °FMild.7 mph69%30.04 "HgN/A
9:55 PM72 °FMild.3 mph69%30.07 "HgN/A
9:25 PM73 °FMild.5 mph65%30.07 "HgN/A
8:55 PM75 °FMild.2 mph61%30.07 "HgN/A
8:25 PM81 °FWarm.2 mph51%30.07 "HgN/A
7:55 PM86 °FPleasantly warm.3 mph33%30.07 "HgN/A
6:55 PM90 °FHot.6 mph31%30.07 "HgN/A
6:25 PM90 °FHot.5 mph29%30.07 "HgN/A
5:55 PM91 °FHot.8 mph28%30.07 "HgN/A
5:25 PM91 °FHot.8 mph24%30.07 "HgN/A
4:55 PM91 °FHot.7 mph30%30.07 "HgN/A
4:25 PM91 °FHot.7 mph32%30.07 "HgN/A
3:55 PM90 °FHot.9 mph33%30.07 "HgN/A
3:25 PM90 °FHot.9 mph33%30.09 "HgN/A
2:55 PM90 °FHot.8 mph33%30.09 "HgN/A
2:25 PM90 °FHot.10 mph38%30.09 "HgN/A
1:55 PM88 °FPleasantly warm.9 mph38%30.09 "HgN/A
1:25 PM88 °FWarm.10 mph43%30.12 "HgN/A
Weather by CustomWeather, © 2016

See weather overviewHow to use our weather pages